STARLINK-3080, 49161

Orbit data source: Space-Track

STARLINK-3080, 49161 is a payload satellite owned by SpaceX/Seattle (US) in LEO that was launched on Tue, 14 Sep 2021 UTC via an FALCON 9 launch vehicle from the Air Force Western Test Range (AFWTR). Payload-class satellites include a variety of spacecraft equipped with specific instruments for various scientific and technological missions. These include communications satellites like Starlink; space stations such as the ISS; scientific satellites like the Hubble; Earth observation satellites from companies like Planet Labs, Umbra, and HawkEye 360; GPS; miniature CubeSats for education and research; and military/defense satellites.

Loading next visibility...
Identifier
49161, 2021-082AH
Orbit
LEO
Last TLE update
11 hours ago
Origin
Manufacturer
SpaceX/Seattle
Mission
Operational Commercial Communications
Bus & Motor
STARLINK, Unknown motor
Mass
297 kg wet, ~275 kg dry
Launch date (UTC)
2021-09-14 (4 years ago)
Launch vehicle
FALCON 9
Launch site
Air Force Western Test Range (AFWTR)
Object type
Payload
Rocket body
Debris
Shape & HBR
Box + 1 Pan, 8.86 m
Radar Cross Section
13.562 m², Large (>1 m²)

Expand to show TLE details & history

TLE from 11 hours ago
0 STARLINK-3080
1 49161U 21082AH  25128.92131525  .00000184  00000-0  23249-4 0  9997
2 49161  69.9988 342.8649 0003084 268.9183  91.1623 14.98332364201402
Epoch: 2025-05-08T22:06Z
Definitive object data (Epoch: 2025-05-08T22:06:41.637Z)
Latitude
-0.00001°
Longitude
144.20653°
Altitude
574.517 km
Speed
7.574 km/s
True Right ascension
22h 51m 27s
True Declination
0° 00' 00"
Sunlit
Object was in daylight at TLE epoch
Visualization TLE readout
Latitude
47.1423°
Longitude
165.96834°
Altitude
580.474 km
Speed
7.574 km/s
Apparent Right ascension
03h 03m 45s
Apparent Declination
7° 49' 29"
Sunlit
Object is in daylight
Visualization observer readout
Local Sidereal Time
17:42:36
Azimuth
46.846° ENE
Elevation
-29.813°
Doppler factor
1
Orbital elements
Apogee altitude
572.14 km
Perigee altitude
567.854 km
Semi-major axis
6,948.134 km
Eccentricity
0.0003084
Inclination
69.9988°
RAAN
342.8649°
Arg. of periapsis
268.9183°
True anomaly
91.19763°
Mean anomaly
91.1623°
Eccentric anomaly
91.17997°
Mean motion
3.74749 °/min
BSTAR
0.000023249
Orbital period
96.06 mins
Loading maneuver chart data...
Loading SW <> Apogee altitude chart data...
Loading historical data...
Loading historical data...
Loading historical data...
Loading historical data...
Loading historical data...
Loading historical data...
Loading historical data...

STARLINK-3080 Visibility forecast

Observer location: undefined°, undefined°

Span
Click to sort rows by Start time (UTC) header in descending order
Start Az.
Max El. time (UTC)
Max El. Az.
Max El.
End time (UTC)
End Az.
7 mins2025-05-09 15:52:15.734Z213.42° SW2025-05-09 15:56:15.734Z330.581° NNW41.662°2025-05-09 15:59:15.734Z17.327° NNE
5 mins2025-05-10 00:18:15.734Z22.72° NE2025-05-10 00:20:15.734Z62.912° ENE20.913°2025-05-10 00:23:15.734Z108.967° ESE
5 mins2025-05-10 01:56:15.734Z298.164° NW2025-05-10 01:58:15.734Z253.048° W26.858°2025-05-10 02:01:15.734Z196.324° SSW
|